sat.trackr.live / text

‹ back to catalog

ONEWEB-0638

NORAD 55802 · 2023-029G

PAYLOAD ACTIVE UNKNOWN

§ Identity

Operator
Country
UK
Launch date
2023-03-09
Launch site
AFETR
Launch vehicle
Mass (kg)
RCS (m²)

Purposes: comms

External: N2YO · Heavens-Above · Gunter

§ Orbital elements

Epoch: 2026-09-20T00:10:13.842624Z

Period
109.55 min
Inclination
87.8892°
Eccentricity
0.0002408
Mean motion
13.14501705 rev/d
Perigee alt
1,204.0 km
Apogee alt
1,207.6 km
Semi-major
7,583.9 km
B*
4.6504e-4
RAAN
270.8308°
Arg perigee
90.8084°
Mean anomaly
269.3322°
Rev number
17,185

§ Raw data

ONEWEB-06381 55802U 23029G   26263.00710466  .00000185  00000+0  46504-3 0  99942 55802  87.8892 270.8308 0002408  90.8084 269.3322 13.14501705171851

JSON: /api/v1/satellites/55802 · /tle

For live sub-satellite position, see the globe view (requires WebGL).

§ Visibility from observer

Set your observer location to see the next 7 days of passes ≥ 10°. The values pass through the URL so the page stays shareable.

No JS? Fill the form by hand. The geolocation button needs JavaScript.